Time,TemperatureF,DewpointF,PressureIn,WindDirection,WindDirectionDegrees,WindSpeedMPH,WindSpeedGustMPH,Humidity,HourlyPrecipIn,Conditions,Clouds,dailyrainin,SoftwareType,DateUTC
2013-03-05 00:00:00,61.3,56.4,29.96,SSE,167,1.0,1.0,84,0.00,,,0.00,Wunderground v.1.15,2013-03-05 06:00:00,
2013-03-05 00:05:00,61.2,56.3,29.96,ESE,112,1.0,1.0,84,0.00,,,0.00,Wunderground v.1.15,2013-03-05 06:05:00,
2013-03-05 00:14:00,61.2,57.0,29.96,ESE,105,0.0,11.0,85,0.00,,,0.00,weatherlink.com 1.10,2013-03-05 06:14:00,
2013-03-05 00:20:00,61.2,56.7,29.97,SSW,197,2.0,5.0,85,0.00,,,0.00,Wunderground v.1.15,2013-03-05 06:20:00,
2013-03-05 00:25:00,61.3,56.4,29.97,ESE,117,1.0,5.0,84,0.00,,,0.00,Wunderground v.1.15,2013-03-05 06:25:00,
2013-03-05 00:30:00,61.3,56.4,29.97,South,169,1.0,3.0,84,0.00,,,0.00,Wunderground v.1.15,2013-03-05 06:30:00,
2013-03-05 00:35:00,61.4,56.5,29.96,SSE,167,1.0,3.0,84,0.00,,,0.00,Wunderground v.1.15,2013-03-05 06:35:00,
2013-03-05 00:44:00,61.5,56.6,29.97,SSE,167,1.0,1.0,84,0.00,,,0.00,Wunderground v.1.15,2013-03-05 06:44:00,
2013-03-05 00:50:00,61.5,56.6,29.97,SW,225,1.0,7.0,84,0.00,,,0.00,Wunderground v.1.15,2013-03-05 06:50:00,
2013-03-05 00:59:00,61.5,56.6,29.97,ESE,113,1.0,1.0,84,0.00,,,0.00,Wunderground v.1.15,2013-03-05 06:59:00,
2013-03-05 01:05:00,61.5,56.6,29.97,South,183,1.0,1.0,84,0.00,,,0.00,Wunderground v.1.15,2013-03-05 07:05:00,
2013-03-05 01:15:00,61.5,56.3,29.97,SSE,148,0.0,1.0,83,0.00,,,0.00,Wunderground v.1.15,2013-03-05 07:15:00,
2013-03-05 01:20:00,61.4,56.5,29.97,SE,128,1.0,1.0,84,0.00,,,0.00,Wunderground v.1.15,2013-03-05 07:20:00,
2013-03-05 01:25:00,61.3,56.4,29.97,SE,143,0.0,1.0,84,0.00,,,0.00,Wunderground v.1.15,2013-03-05 07:25:00,
2013-03-05 01:30:00,61.2,56.7,29.98,SE,141,0.0,0.0,85,0.00,,,0.00,Wunderground v.1.15,2013-03-05 07:30:00,
2013-03-05 01:35:00,61.1,56.6,29.97,SSW,197,1.0,5.0,85,0.00,,,0.00,Wunderground v.1.15,2013-03-05 07:35:00,
2013-03-05 01:40:00,61.0,56.8,29.97,WSW,238,1.0,1.0,86,0.00,,,0.00,Wunderground v.1.15,2013-03-05 07:40:00,
2013-03-05 01:45:00,60.8,56.6,29.97,SW,217,0.0,1.0,86,0.00,,,0.00,Wunderground v.1.15,2013-03-05 07:45:00,
2013-03-05 01:50:00,60.7,56.5,29.97,ESE,107,0.0,1.0,86,0.00,,,0.00,Wunderground v.1.15,2013-03-05 07:50:00,
2013-03-05 01:59:00,60.9,57.0,29.97,SSE,148,0.0,8.0,86,0.00,,,0.00,weatherlink.com 1.10,2013-03-05 07:59:00,
2013-03-05 02:05:00,60.9,56.4,29.97,WSW,252,1.0,1.0,85,0.00,,,0.00,Wunderground v.1.15,2013-03-05 08:05:00,
2013-03-05 02:15:00,60.9,56.0,29.97,WSW,243,0.0,6.0,85,0.00,,,0.00,weatherlink.com 1.10,2013-03-05 08:15:00,
2013-03-05 02:20:00,60.8,56.3,29.97,SSW,195,0.0,0.0,85,0.00,,,0.00,Wunderground v.1.15,2013-03-05 08:20:00,
2013-03-05 02:25:00,60.8,56.3,29.97,SE,146,0.0,0.0,85,0.00,,,0.00,Wunderground v.1.15,2013-03-05 08:25:00,
2013-03-05 02:30:00,60.9,56.0,29.97,NE,44,0.0,5.0,85,0.00,,,0.00,weatherlink.com 1.10,2013-03-05 08:30:00,
2013-03-05 02:35:00,61.0,56.5,29.96,East,83,0.0,0.0,85,0.00,,,0.00,Wunderground v.1.15,2013-03-05 08:35:00,
2013-03-05 02:44:00,61.3,57.0,29.96,South,186,0.0,8.0,85,0.00,,,0.00,weatherlink.com 1.10,2013-03-05 08:44:00,
2013-03-05 02:50:00,61.3,56.8,29.96,ESE,104,1.0,1.0,85,0.00,,,0.00,Wunderground v.1.15,2013-03-05 08:50:00,
2013-03-05 02:59:00,61.4,57.0,29.96,SSE,165,0.0,6.0,85,0.00,,,0.00,weatherlink.com 1.10,2013-03-05 08:59:00,
2013-03-05 03:05:00,61.5,56.9,29.96,South,170,1.0,1.0,85,0.00,,,0.00,Wunderground v.1.15,2013-03-05 09:05:00,
2013-03-05 03:15:00,61.6,57.0,29.95,SE,127,1.0,1.0,85,0.00,,,0.00,Wunderground v.1.15,2013-03-05 09:15:00,
2013-03-05 03:25:00,61.7,57.1,29.96,WSW,255,0.0,2.0,85,0.00,,,0.00,Wunderground v.1.15,2013-03-05 09:25:00,
2013-03-05 03:30:00,61.6,57.0,29.96,SSE,167,0.0,3.0,85,0.00,,,0.00,weatherlink.com 1.10,2013-03-05 09:30:00,
2013-03-05 03:35:00,61.6,57.0,29.96,SSE,149,0.0,0.0,85,0.00,,,0.00,Wunderground v.1.15,2013-03-05 09:35:00,
2013-03-05 03:40:00,61.5,56.9,29.96,SSE,148,0.0,0.0,85,0.00,,,0.00,Wunderground v.1.15,2013-03-05 09:40:00,
2013-03-05 03:45:00,61.4,56.8,29.96,West,269,0.0,0.0,85,0.00,,,0.00,Wunderground v.1.15,2013-03-05 09:45:00,
2013-03-05 03:55:00,61.5,57.3,29.97,SW,236,0.0,1.0,86,0.00,,,0.00,Wunderground v.1.15,2013-03-05 09:55:00,
2013-03-05 04:00:00,61.5,57.3,29.97,SE,134,0.0,0.0,86,0.00,,,0.00,Wunderground v.1.15,2013-03-05 10:00:00,
2013-03-05 04:05:00,61.4,57.2,29.97,South,191,0.0,0.0,86,0.00,,,0.00,Wunderground v.1.15,2013-03-05 10:05:00,
2013-03-05 04:15:00,61.5,57.3,29.96,East,101,0.0,0.0,86,0.00,,,0.00,Wunderground v.1.15,2013-03-05 10:15:00,
2013-03-05 04:20:00,61.5,57.3,29.96,SW,217,0.0,0.0,86,0.00,,,0.00,Wunderground v.1.15,2013-03-05 10:20:00,
2013-03-05 04:30:00,61.4,57.0,29.97,East,94,0.0,3.0,86,0.00,,,0.00,weatherlink.com 1.10,2013-03-05 10:30:00,
2013-03-05 04:35:00,61.4,57.2,29.97,South,186,0.0,0.0,86,0.00,,,0.00,Wunderground v.1.15,2013-03-05 10:35:00,
2013-03-05 04:44:00,61.3,57.0,29.97,SSE,163,0.0,1.0,86,0.00,,,0.00,weatherlink.com 1.10,2013-03-05 10:44:00,
2013-03-05 04:50:00,61.3,57.1,29.97,SE,141,0.0,0.0,86,0.00,,,0.00,Wunderground v.1.15,2013-03-05 10:50:00,
2013-03-05 04:55:00,61.3,57.4,29.97,East,85,0.0,0.0,87,0.00,,,0.00,Wunderground v.1.15,2013-03-05 10:55:00,
2013-03-05 05:01:00,61.1,57.0,29.97,East,80,0.0,1.0,87,0.00,,,0.00,weatherlink.com 1.10,2013-03-05 11:01:00,
2013-03-05 05:10:00,61.0,57.1,29.98,South,176,0.0,0.0,87,0.00,,,0.00,Wunderground v.1.15,2013-03-05 11:10:00,
2013-03-05 05:15:00,61.0,58.0,29.98,SSE,152,0.0,1.0,88,0.00,,,0.00,weatherlink.com 1.10,2013-03-05 11:15:00,
2013-03-05 05:20:00,61.1,57.5,29.97,ESE,121,0.0,1.0,88,0.00,,,0.00,Wunderground v.1.15,2013-03-05 11:20:00,
2013-03-05 05:25:00,61.3,57.4,29.97,SE,143,0.0,1.0,87,0.00,,,0.00,Wunderground v.1.15,2013-03-05 11:25:00,
2013-03-05 05:30:00,61.3,57.0,29.97,SE,124,3.0,3.0,87,0.00,,,0.00,weatherlink.com 1.10,2013-03-05 11:30:00,
2013-03-05 05:40:00,61.6,57.7,29.97,SSE,167,1.0,1.0,87,0.00,,,0.00,Wunderground v.1.15,2013-03-05 11:40:00,
2013-03-05 05:45:00,61.6,58.0,29.97,SSE,152,0.0,5.0,87,0.00,,,0.00,weatherlink.com 1.10,2013-03-05 11:45:00,
2013-03-05 05:50:00,61.8,57.9,29.97,SSE,155,1.0,1.0,87,0.00,,,0.00,Wunderground v.1.15,2013-03-05 11:50:00,
2013-03-05 05:55:00,61.8,57.9,29.97,East,80,0.0,1.0,87,0.00,,,0.00,Wunderground v.1.15,2013-03-05 11:55:00,
2013-03-05 06:00:00,61.7,58.0,29.97,ESE,113,0.0,4.0,87,0.00,,,0.00,weatherlink.com 1.10,2013-03-05 12:00:00,
2013-03-05 06:05:00,61.7,57.8,29.97,SE,127,0.0,1.0,87,0.00,,,0.00,Wunderground v.1.15,2013-03-05 12:05:00,
2013-03-05 06:14:00,62.0,58.1,29.97,SSE,165,0.0,1.0,87,0.00,,,0.00,Wunderground v.1.15,2013-03-05 12:14:00,
2013-03-05 06:19:00,62.0,58.1,29.97,NE,49,0.0,0.0,87,0.00,,,0.00,Wunderground v.1.15,2013-03-05 12:19:00,
2013-03-05 06:25:00,62.1,58.2,29.97,South,181,0.0,0.0,87,0.00,,,0.00,Wunderground v.1.15,2013-03-05 12:25:00,
2013-03-05 06:30:00,62.2,58.0,29.97,South,176,0.0,8.0,87,0.00,,,0.00,weatherlink.com 1.10,2013-03-05 12:30:00,
2013-03-05 06:35:00,62.2,58.3,29.98,SW,220,0.0,1.0,87,0.00,,,0.00,Wunderground v.1.15,2013-03-05 12:35:00,
2013-03-05 06:40:00,62.2,58.3,29.98,West,270,0.0,0.0,87,0.00,,,0.00,Wunderground v.1.15,2013-03-05 12:40:00,
2013-03-05 06:45:00,62.1,58.0,29.98,SSE,159,0.0,4.0,87,0.00,,,0.00,weatherlink.com 1.10,2013-03-05 12:45:00,
2013-03-05 06:55:00,62.4,58.5,29.98,WSW,245,0.0,0.0,87,0.00,,,0.00,Wunderground v.1.15,2013-03-05 12:55:00,
2013-03-05 07:00:00,62.5,59.0,29.98,SSW,198,0.0,4.0,87,0.00,,,0.00,weatherlink.com 1.10,2013-03-05 13:00:00,
2013-03-05 07:05:00,62.7,58.8,29.98,SSE,167,1.0,1.0,87,0.00,,,0.00,Wunderground v.1.15,2013-03-05 13:05:00,
2013-03-05 07:14:00,63.0,59.1,29.98,South,184,0.0,1.0,87,0.00,,,0.00,Wunderground v.1.15,2013-03-05 13:14:00,
2013-03-05 07:19:00,63.1,59.2,29.98,South,184,0.0,3.0,87,0.00,,,0.00,Wunderground v.1.15,2013-03-05 13:19:00,
2013-03-05 07:30:00,63.4,59.1,29.98,East,84,0.0,0.0,86,0.00,,,0.00,Wunderground v.1.15,2013-03-05 13:30:00,
2013-03-05 07:35:00,63.5,59.2,29.99,WSW,239,0.0,0.0,86,0.00,,,0.00,Wunderground v.1.15,2013-03-05 13:35:00,
2013-03-05 07:40:00,63.6,59.3,30.00,SW,214,0.0,0.0,86,0.00,,,0.00,Wunderground v.1.15,2013-03-05 13:40:00,
2013-03-05 07:45:00,63.8,59.5,30.02,NNW,330,0.0,0.0,86,0.00,,,0.00,Wunderground v.1.15,2013-03-05 13:45:00,
2013-03-05 07:50:00,64.0,59.7,30.04,WNW,301,0.0,0.0,86,0.00,,,0.00,Wunderground v.1.15,2013-03-05 13:50:00,
2013-03-05 07:55:00,64.2,59.6,30.06,NNE,27,0.0,0.0,85,0.00,,,0.00,Wunderground v.1.15,2013-03-05 13:55:00,
2013-03-05 08:00:00,64.4,60.0,30.05,SW,235,0.0,2.0,85,0.00,,,0.00,weatherlink.com 1.10,2013-03-05 14:00:00,
2013-03-05 08:09:00,64.7,60.1,30.05,South,172,0.0,0.0,85,0.00,,,0.00,Wunderground v.1.15,2013-03-05 14:09:00,
2013-03-05 08:15:00,65.0,60.4,30.04,NNW,344,0.0,0.0,85,0.00,,,0.00,Wunderground v.1.15,2013-03-05 14:15:00,
2013-03-05 08:20:00,65.3,60.3,30.05,SW,228,0.0,1.0,84,0.00,,,0.00,Wunderground v.1.15,2013-03-05 14:20:00,
2013-03-05 08:25:00,65.4,60.1,30.04,West,273,1.0,1.0,83,0.00,,,0.00,Wunderground v.1.15,2013-03-05 14:25:00,
2013-03-05 08:30:00,65.5,60.2,30.04,NE,51,0.0,0.0,83,0.00,,,0.00,Wunderground v.1.15,2013-03-05 14:30:00,
2013-03-05 08:40:00,65.5,60.2,30.04,SE,131,0.0,0.0,83,0.00,,,0.00,Wunderground v.1.15,2013-03-05 14:40:00,
2013-03-05 08:45:00,65.7,60.4,30.04,East,84,0.0,4.0,83,0.00,,,0.00,Wunderground v.1.15,2013-03-05 14:45:00,
2013-03-05 08:50:00,65.9,60.6,30.03,WNW,299,0.0,0.0,83,0.00,,,0.00,Wunderground v.1.15,2013-03-05 14:50:00,
2013-03-05 08:59:00,66.7,61.0,30.03,WSW,238,0.0,0.0,82,0.00,,,0.00,Wunderground v.1.15,2013-03-05 14:59:00,
2013-03-05 09:05:00,67.4,61.4,30.03,WSW,240,0.0,1.0,81,0.00,,,0.00,Wunderground v.1.15,2013-03-05 15:05:00,
2013-03-05 09:15:00,69.0,61.9,30.03,SSW,207,1.0,3.0,78,0.00,,,0.00,Wunderground v.1.15,2013-03-05 15:15:00,
2013-03-05 09:20:00,69.5,62.0,30.03,South,173,1.0,1.0,77,0.00,,,0.00,Wunderground v.1.15,2013-03-05 15:20:00,
2013-03-05 09:25:00,69.4,61.5,30.03,West,262,1.0,1.0,76,0.00,,,0.00,Wunderground v.1.15,2013-03-05 15:25:00,
2013-03-05 09:30:00,69.1,62.0,30.03,SSE,149,1.0,10.0,77,0.00,,,0.00,weatherlink.com 1.10,2013-03-05 15:30:00,
2013-03-05 09:39:00,69.6,62.4,30.03,SSE,148,1.0,3.0,78,0.00,,,0.00,Wunderground v.1.15,2013-03-05 15:39:00,
2013-03-05 09:45:00,69.9,62.4,30.03,East,80,1.0,3.0,77,0.00,,,0.00,Wunderground v.1.15,2013-03-05 15:45:00,
2013-03-05 09:54:00,70.3,62.4,30.03,East,91,2.0,4.0,76,0.00,,,0.00,Wunderground v.1.15,2013-03-05 15:54:00,
2013-03-05 10:00:00,70.3,62.4,30.02,ENE,78,3.0,3.0,76,0.00,,,0.00,Wunderground v.1.15,2013-03-05 16:00:00,
2013-03-05 10:05:00,70.2,62.3,30.02,SE,129,2.0,3.0,76,0.00,,,0.00,Wunderground v.1.15,2013-03-05 16:05:00,
2013-03-05 10:15:00,70.7,62.8,30.03,NNW,332,1.0,1.0,76,0.00,,,0.00,Wunderground v.1.15,2013-03-05 16:15:00,
2013-03-05 10:24:00,71.1,62.8,30.02,WNW,283,1.0,1.0,75,0.00,,,0.00,Wunderground v.1.15,2013-03-05 16:24:00,
2013-03-05 10:29:00,71.4,63.1,30.03,WNW,284,1.0,2.0,75,0.00,,,0.00,Wunderground v.1.15,2013-03-05 16:29:00,
2013-03-05 10:34:00,71.6,62.9,30.02,East,86,2.0,2.0,74,0.00,,,0.00,Wunderground v.1.15,2013-03-05 16:34:00,
2013-03-05 10:40:00,71.3,62.6,30.02,SSE,158,2.0,2.0,74,0.00,,,0.00,Wunderground v.1.15,2013-03-05 16:40:00,
2013-03-05 10:45:00,71.4,62.7,30.02,SW,235,1.0,4.0,74,0.00,,,0.00,Wunderground v.1.15,2013-03-05 16:45:00,
2013-03-05 10:55:00,72.0,63.3,30.01,SW,231,3.0,3.0,74,0.00,,,0.00,Wunderground v.1.15,2013-03-05 16:55:00,
2013-03-05 11:00:00,72.7,63.5,30.01,South,169,3.0,3.0,73,0.00,,,0.00,Wunderground v.1.15,2013-03-05 17:00:00,
2013-03-05 11:05:00,73.1,63.9,30.01,NW,317,3.0,4.0,73,0.00,,,0.00,Wunderground v.1.15,2013-03-05 17:05:00,
2013-03-05 11:15:00,73.7,64.1,30.01,South,179,3.0,11.0,72,0.00,,,0.00,Wunderground v.1.15,2013-03-05 17:15:00,
2013-03-05 11:20:00,74.0,64.0,30.01,SW,214,4.0,4.0,71,0.00,,,0.00,Wunderground v.1.15,2013-03-05 17:20:00,
2013-03-05 11:30:00,73.5,63.5,30.00,NNW,328,4.0,4.0,71,0.00,,,0.00,Wunderground v.1.15,2013-03-05 17:30:00,
2013-03-05 11:35:00,73.6,64.0,30.00,West,277,4.0,4.0,72,0.00,,,0.00,Wunderground v.1.15,2013-03-05 17:35:00,
2013-03-05 11:44:00,73.5,63.9,30.00,SSE,159,2.0,3.0,72,0.00,,,0.00,Wunderground v.1.15,2013-03-05 17:44:00,
2013-03-05 11:49:00,73.2,63.6,30.00,SW,218,2.0,2.0,72,0.00,,,0.00,Wunderground v.1.15,2013-03-05 17:49:00,
2013-03-05 11:54:00,73.1,63.9,29.99,ENE,69,2.0,3.0,73,0.00,,,0.00,Wunderground v.1.15,2013-03-05 17:54:00,
2013-03-05 12:01:00,73.2,64.0,29.99,South,191,3.0,8.0,72,0.00,,,0.00,weatherlink.com 1.10,2013-03-05 18:01:00,
2013-03-05 12:10:00,72.9,63.7,29.99,NNE,19,2.0,2.0,73,0.00,,,0.00,Wunderground v.1.15,2013-03-05 18:10:00,
2013-03-05 12:16:00,72.2,64.0,29.99,SW,216,1.0,14.0,74,0.00,,,0.00,weatherlink.com 1.10,2013-03-05 18:16:00,
2013-03-05 12:25:00,71.6,63.3,29.99,WSW,237,3.0,8.0,75,0.00,,,0.00,Wunderground v.1.15,2013-03-05 18:25:00,
2013-03-05 12:30:00,71.2,62.9,29.98,East,90,3.0,4.0,75,0.00,,,0.00,Wunderground v.1.15,2013-03-05 18:30:00,
2013-03-05 12:40:00,71.3,63.3,29.98,North,358,1.0,1.0,76,0.00,,,0.00,Wunderground v.1.15,2013-03-05 18:40:00,
2013-03-05 12:45:00,71.2,62.9,29.98,WSW,243,1.0,1.0,75,0.00,,,0.00,Wunderground v.1.15,2013-03-05 18:45:00,
2013-03-05 12:50:00,70.7,62.8,29.98,WNW,297,1.0,1.0,76,0.00,,,0.00,Wunderground v.1.15,2013-03-05 18:50:00,
2013-03-05 12:55:00,70.1,62.6,29.98,WSW,253,1.0,1.0,77,0.00,,,0.00,Wunderground v.1.15,2013-03-05 18:55:00,
2013-03-05 13:02:00,69.5,62.0,29.98,SW,235,1.0,8.0,78,0.00,,,0.00,weatherlink.com 1.10,2013-03-05 19:02:00,
2013-03-05 13:10:00,69.0,62.6,29.98,SE,142,2.0,2.0,80,0.00,,,0.00,Wunderground v.1.15,2013-03-05 19:10:00,
2013-03-05 13:16:00,69.4,63.0,29.97,South,176,6.0,6.0,79,0.00,,,0.00,weatherlink.com 1.10,2013-03-05 19:16:00,
2013-03-05 13:25:00,69.9,63.1,29.97,NW,304,1.0,1.0,79,0.00,,,0.00,Wunderground v.1.15,2013-03-05 19:25:00,
2013-03-05 13:30:00,70.7,63.5,29.96,SW,215,1.0,2.0,78,0.00,,,0.00,Wunderground v.1.15,2013-03-05 19:30:00,
2013-03-05 13:35:00,71.8,64.9,29.95,SSE,148,1.0,2.0,79,0.00,,,0.00,Wunderground v.1.15,2013-03-05 19:35:00,
2013-03-05 13:40:00,73.2,64.4,29.95,NW,326,2.0,2.0,74,0.00,,,0.00,Wunderground v.1.15,2013-03-05 19:40:00,
2013-03-05 13:47:00,73.7,65.0,29.95,SW,226,4.0,14.0,73,0.00,,,0.00,weatherlink.com 1.10,2013-03-05 19:47:00,
2013-03-05 13:55:00,74.8,65.2,29.95,SSE,166,2.0,4.0,72,0.00,,,0.00,Wunderground v.1.15,2013-03-05 19:55:00,
2013-03-05 14:00:00,75.2,64.7,29.94,NW,315,1.0,1.0,70,0.00,,,0.00,Wunderground v.1.15,2013-03-05 20:00:00,
2013-03-05 14:05:00,74.4,64.0,29.94,NNW,333,2.0,2.0,70,0.00,,,0.00,Wunderground v.1.15,2013-03-05 20:05:00,
2013-03-05 14:15:00,73.3,64.1,29.94,NW,307,2.0,2.0,73,0.00,,,0.00,Wunderground v.1.15,2013-03-05 20:15:00,
2013-03-05 14:25:00,73.0,63.8,29.94,West,263,1.0,1.0,73,0.00,,,0.00,Wunderground v.1.15,2013-03-05 20:25:00,
2013-03-05 14:30:00,73.5,64.3,29.94,East,79,1.0,1.0,73,0.00,,,0.00,Wunderground v.1.15,2013-03-05 20:30:00,
2013-03-05 14:35:00,73.7,64.5,29.93,SW,217,2.0,5.0,73,0.00,,,0.00,Wunderground v.1.15,2013-03-05 20:35:00,
2013-03-05 14:40:00,73.7,64.5,29.93,SW,226,3.0,3.0,73,0.00,,,0.00,Wunderground v.1.15,2013-03-05 20:40:00,
2013-03-05 14:46:00,74.1,65.0,29.93,SW,231,2.0,5.0,73,0.00,,,0.00,weatherlink.com 1.10,2013-03-05 20:46:00,
2013-03-05 14:54:00,74.8,64.8,29.93,ENE,76,1.0,2.0,71,0.00,,,0.00,Wunderground v.1.15,2013-03-05 20:54:00,
2013-03-05 14:59:00,75.4,64.9,29.93,WNW,295,1.0,1.0,70,0.00,,,0.00,Wunderground v.1.15,2013-03-05 20:59:00,
2013-03-05 15:05:00,75.8,64.9,29.93,WSW,244,1.0,2.0,69,0.00,,,0.00,Wunderground v.1.15,2013-03-05 21:05:00,
2013-03-05 15:14:00,75.8,64.9,29.93,SW,214,1.0,1.0,69,0.00,,,0.00,Wunderground v.1.15,2013-03-05 21:14:00,
2013-03-05 15:19:00,76.1,65.2,29.93,WSW,246,1.0,1.0,69,0.00,,,0.00,Wunderground v.1.15,2013-03-05 21:19:00,
2013-03-05 15:25:00,76.2,64.4,29.93,WNW,292,1.0,1.0,67,0.00,,,0.00,Wunderground v.1.15,2013-03-05 21:25:00,
2013-03-05 15:31:00,75.5,65.0,29.93,East,96,0.0,5.0,69,0.00,,,0.00,weatherlink.com 1.10,2013-03-05 21:31:00,
2013-03-05 15:40:00,75.0,64.1,29.93,NNE,13,1.0,1.0,69,0.00,,,0.00,Wunderground v.1.15,2013-03-05 21:40:00,
2013-03-05 15:45:00,73.9,63.1,29.93,West,262,2.0,2.0,69,0.00,,,0.00,Wunderground v.1.15,2013-03-05 21:45:00,
2013-03-05 15:50:00,72.5,63.0,29.93,WSW,240,2.0,2.0,72,0.00,,,0.00,Wunderground v.1.15,2013-03-05 21:50:00,
2013-03-05 16:00:00,71.2,62.5,29.93,WSW,243,1.0,1.0,74,0.00,,,0.00,Wunderground v.1.15,2013-03-05 22:00:00,
2013-03-05 16:05:00,71.2,62.9,29.93,WSW,250,1.0,1.0,75,0.00,,,0.00,Wunderground v.1.15,2013-03-05 22:05:00,
2013-03-05 16:14:00,72.2,63.1,29.94,WNW,287,0.0,1.0,73,0.00,,,0.00,Wunderground v.1.15,2013-03-05 22:14:00,
2013-03-05 16:20:00,72.3,63.2,29.94,ENE,72,0.0,1.0,73,0.00,,,0.00,Wunderground v.1.15,2013-03-05 22:20:00,
2013-03-05 16:25:00,71.9,62.8,29.94,NNE,16,0.0,1.0,73,0.00,,,0.00,Wunderground v.1.15,2013-03-05 22:25:00,
2013-03-05 16:30:00,71.1,62.4,29.94,WSW,243,0.0,0.0,74,0.00,,,0.00,Wunderground v.1.15,2013-03-05 22:30:00,
2013-03-05 16:35:00,70.6,62.7,29.94,West,259,0.0,0.0,76,0.00,,,0.00,Wunderground v.1.15,2013-03-05 22:35:00,
2013-03-05 16:45:00,70.3,62.4,29.95,WSW,253,0.0,1.0,76,0.00,,,0.00,Wunderground v.1.15,2013-03-05 22:45:00,
2013-03-05 16:50:00,70.3,62.4,29.95,West,281,0.0,0.0,76,0.00,,,0.00,Wunderground v.1.15,2013-03-05 22:50:00,
2013-03-05 16:59:00,70.9,60.2,29.95,NE,53,2.0,2.0,69,0.00,,,0.00,Wunderground v.1.15,2013-03-05 22:59:00,
2013-03-05 17:05:00,71.0,59.5,29.96,NW,316,2.0,2.0,67,0.00,,,0.00,Wunderground v.1.15,2013-03-05 23:05:00,
2013-03-05 17:15:00,71.1,58.3,29.96,West,281,2.0,2.0,64,0.00,,,0.00,Wunderground v.1.15,2013-03-05 23:15:00,
2013-03-05 17:25:00,70.7,56.6,29.97,ENE,75,2.0,2.0,61,0.00,,,0.00,Wunderground v.1.15,2013-03-05 23:25:00,
2013-03-05 17:30:00,70.3,54.8,29.97,WNW,293,2.0,2.0,58,0.00,,,0.00,Wunderground v.1.15,2013-03-05 23:30:00,
2013-03-05 17:35:00,70.1,53.7,29.98,WNW,284,2.0,2.0,56,0.00,,,0.00,Wunderground v.1.15,2013-03-05 23:35:00,
2013-03-05 17:40:00,69.7,54.3,29.98,NW,316,2.0,2.0,58,0.00,,,0.00,Wunderground v.1.15,2013-03-05 23:40:00,
2013-03-05 17:45:00,69.3,53.4,29.98,WSW,253,2.0,2.0,57,0.00,,,0.00,Wunderground v.1.15,2013-03-05 23:45:00,
2013-03-05 17:55:00,68.4,53.0,29.99,WSW,239,1.0,1.0,58,0.00,,,0.00,Wunderground v.1.15,2013-03-05 23:55:00,
2013-03-05 18:00:00,67.9,53.0,29.99,North,349,1.0,1.0,59,0.00,,,0.00,Wunderground v.1.15,2013-03-06 00:00:00,
2013-03-05 18:05:00,67.5,53.6,30.00,ENE,70,2.0,3.0,61,0.00,,,0.00,Wunderground v.1.15,2013-03-06 00:05:00,
2013-03-05 18:14:00,66.7,53.3,30.00,WNW,295,1.0,1.0,62,0.00,,,0.00,Wunderground v.1.15,2013-03-06 00:14:00,
2013-03-05 18:19:00,66.2,52.8,30.01,NW,314,1.0,1.0,62,0.00,,,0.00,Wunderground v.1.15,2013-03-06 00:19:00,
2013-03-05 18:24:00,65.8,52.4,30.01,SE,124,1.0,1.0,62,0.00,,,0.00,Wunderground v.1.15,2013-03-06 00:24:00,
2013-03-05 18:32:00,65.1,52.0,30.02,NW,322,0.0,4.0,63,0.00,,,0.00,weatherlink.com 1.10,2013-03-06 00:32:00,
2013-03-05 18:39:00,64.2,52.2,30.02,NE,44,0.0,2.0,65,0.00,,,0.00,Wunderground v.1.15,2013-03-06 00:39:00,
2013-03-05 18:44:00,63.6,51.2,30.03,NNW,329,1.0,2.0,64,0.00,,,0.00,Wunderground v.1.15,2013-03-06 00:44:00,
2013-03-05 18:50:00,63.2,50.8,30.03,SW,226,1.0,1.0,64,0.00,,,0.00,Wunderground v.1.15,2013-03-06 00:50:00,
2013-03-05 18:55:00,62.7,49.9,30.03,North,352,1.0,1.0,63,0.00,,,0.00,Wunderground v.1.15,2013-03-06 00:55:00,
2013-03-05 19:03:00,61.9,48.0,30.04,ENE,71,0.0,3.0,61,0.00,,,0.00,weatherlink.com 1.10,2013-03-06 01:03:00,
2013-03-05 19:10:00,61.4,47.4,30.04,NW,312,1.0,1.0,60,0.00,,,0.00,Wunderground v.1.15,2013-03-06 01:10:00,
2013-03-05 19:15:00,61.1,47.1,30.05,ENE,75,1.0,1.0,60,0.00,,,0.00,Wunderground v.1.15,2013-03-06 01:15:00,
2013-03-05 19:20:00,60.6,46.6,30.05,East,83,0.0,0.0,60,0.00,,,0.00,Wunderground v.1.15,2013-03-06 01:20:00,
2013-03-05 19:29:00,59.9,46.0,30.05,West,276,0.0,0.0,60,0.00,,,0.00,Wunderground v.1.15,2013-03-06 01:29:00,
2013-03-05 19:34:00,59.7,45.8,30.05,NW,313,1.0,2.0,60,0.00,,,0.00,Wunderground v.1.15,2013-03-06 01:34:00,
2013-03-05 19:40:00,59.4,45.9,30.05,NNE,22,1.0,1.0,61,0.00,,,0.00,Wunderground v.1.15,2013-03-06 01:40:00,
2013-03-05 19:47:00,59.1,45.0,30.06,WNW,283,3.0,7.0,60,0.00,,,0.00,weatherlink.com 1.10,2013-03-06 01:47:00,
2013-03-05 19:54:00,58.7,45.3,30.06,SW,215,1.0,1.0,61,0.00,,,0.00,Wunderground v.1.15,2013-03-06 01:54:00,
2013-03-05 19:59:00,58.4,45.4,30.07,NNW,333,0.0,1.0,62,0.00,,,0.00,Wunderground v.1.15,2013-03-06 01:59:00,
2013-03-05 20:05:00,58.0,45.5,30.07,ENE,70,0.0,1.0,63,0.00,,,0.00,Wunderground v.1.15,2013-03-06 02:05:00,
2013-03-05 20:14:00,57.6,45.5,30.08,ENE,75,1.0,1.0,64,0.00,,,0.00,Wunderground v.1.15,2013-03-06 02:14:00,
2013-03-05 20:19:00,57.4,45.7,30.08,West,273,1.0,1.0,65,0.00,,,0.00,Wunderground v.1.15,2013-03-06 02:19:00,
2013-03-05 20:24:00,57.1,45.4,30.08,WNW,291,1.0,1.0,65,0.00,,,0.00,Wunderground v.1.15,2013-03-06 02:24:00,
2013-03-05 20:29:00,56.8,45.2,30.09,ENE,72,1.0,1.0,65,0.00,,,0.00,Wunderground v.1.15,2013-03-06 02:29:00,
2013-03-05 20:35:00,56.5,45.3,30.09,NNE,19,0.0,1.0,66,0.00,,,0.00,Wunderground v.1.15,2013-03-06 02:35:00,
2013-03-05 20:40:00,56.2,45.4,30.09,East,88,0.0,0.0,67,0.00,,,0.00,Wunderground v.1.15,2013-03-06 02:40:00,
2013-03-05 20:47:00,55.6,46.0,30.10,NNW,333,0.0,2.0,69,0.00,,,0.00,weatherlink.com 1.10,2013-03-06 02:47:00,
2013-03-05 20:54:00,55.2,45.2,30.10,West,281,0.0,2.0,69,0.00,,,0.00,Wunderground v.1.15,2013-03-06 02:54:00,
2013-03-05 20:59:00,55.2,45.2,30.10,ESE,119,0.0,0.0,69,0.00,,,0.00,Wunderground v.1.15,2013-03-06 02:59:00,
2013-03-05 21:05:00,55.0,45.0,30.11,ENE,70,1.0,1.0,69,0.00,,,0.00,Wunderground v.1.15,2013-03-06 03:05:00,
2013-03-05 21:15:00,54.8,44.0,30.11,North,11,1.0,2.0,67,0.00,,,0.00,Wunderground v.1.15,2013-03-06 03:15:00,
2013-03-05 21:25:00,54.5,43.8,30.12,SW,222,1.0,1.0,67,0.00,,,0.00,Wunderground v.1.15,2013-03-06 03:25:00,
2013-03-05 21:30:00,54.3,44.0,30.12,North,352,0.0,0.0,68,0.00,,,0.00,Wunderground v.1.15,2013-03-06 03:30:00,
2013-03-05 21:35:00,53.9,43.6,30.12,West,277,0.0,0.0,68,0.00,,,0.00,Wunderground v.1.15,2013-03-06 03:35:00,
2013-03-05 21:40:00,53.5,43.6,30.13,NW,305,0.0,0.0,69,0.00,,,0.00,Wunderground v.1.15,2013-03-06 03:40:00,
2013-03-05 21:45:00,53.1,43.2,30.13,NE,37,0.0,0.0,69,0.00,,,0.00,Wunderground v.1.15,2013-03-06 03:45:00,
2013-03-05 21:50:00,52.6,43.1,30.13,NNW,340,0.0,0.0,70,0.00,,,0.00,Wunderground v.1.15,2013-03-06 03:50:00,
2013-03-05 22:00:00,51.4,43.0,30.13,NNW,340,0.0,0.0,73,0.00,,,0.00,Wunderground v.1.15,2013-03-06 04:00:00,
2013-03-05 22:05:00,50.6,42.6,30.13,NNW,340,0.0,0.0,74,0.00,,,0.00,Wunderground v.1.15,2013-03-06 04:05:00,
2013-03-05 22:15:00,49.5,42.2,30.13,NNW,340,0.0,0.0,76,0.00,,,0.00,Wunderground v.1.15,2013-03-06 04:15:00,
2013-03-05 22:20:00,49.1,42.5,30.13,NNW,340,0.0,0.0,78,0.00,,,0.00,Wunderground v.1.15,2013-03-06 04:20:00,
2013-03-05 22:25:00,48.6,42.7,30.13,NNW,336,0.0,0.0,80,0.00,,,0.00,Wunderground v.1.15,2013-03-06 04:25:00,
2013-03-05 22:33:00,48.0,42.0,30.14,NNW,337,0.0,0.0,80,0.00,,,0.00,weatherlink.com 1.10,2013-03-06 04:33:00,
2013-03-05 22:40:00,47.4,42.2,30.13,NNW,338,0.0,0.0,82,0.00,,,0.00,Wunderground v.1.15,2013-03-06 04:40:00,
2013-03-05 22:45:00,46.9,42.0,30.13,NNW,338,0.0,0.0,83,0.00,,,0.00,Wunderground v.1.15,2013-03-06 04:45:00,
2013-03-05 22:50:00,46.7,42.4,30.13,NNW,338,0.0,0.0,85,0.00,,,0.00,Wunderground v.1.15,2013-03-06 04:50:00,
2013-03-05 22:59:00,46.1,41.5,30.14,NNW,338,0.0,0.0,84,0.00,,,0.00,Wunderground v.1.15,2013-03-06 04:59:00,
2013-03-05 23:03:00,45.6,42.0,30.14,NNW,338,0.0,0.0,86,0.00,,,0.00,weatherlink.com 1.10,2013-03-06 05:03:00,
2013-03-05 23:05:00,45.6,41.7,30.14,NNW,338,0.0,0.0,86,0.00,,,0.00,Wunderground v.1.15,2013-03-06 05:05:00,
2013-03-05 23:10:00,45.2,41.3,30.14,NNW,338,0.0,0.0,86,0.00,,,0.00,Wunderground v.1.15,2013-03-06 05:10:00,
2013-03-05 23:14:00,44.9,41.3,30.15,NNW,338,0.0,0.0,87,0.00,,,0.00,Wunderground v.1.15,2013-03-06 05:14:00,
2013-03-05 23:19:00,44.5,41.2,30.15,NNW,338,0.0,0.0,88,0.00,,,0.00,Wunderground v.1.15,2013-03-06 05:19:00,
2013-03-05 23:24:00,44.2,40.9,30.15,NNW,338,0.0,0.0,88,0.00,,,0.00,Wunderground v.1.15,2013-03-06 05:24:00,
2013-03-05 23:29:00,43.9,40.9,30.15,NNW,338,0.0,0.0,89,0.00,,,0.00,Wunderground v.1.15,2013-03-06 05:29:00,
2013-03-05 23:34:00,43.5,40.5,30.15,NNW,337,0.0,0.0,89,0.00,,,0.00,Wunderground v.1.15,2013-03-06 05:34:00,
2013-03-05 23:40:00,43.5,40.8,30.15,NNW,338,0.0,0.0,90,0.00,,,0.00,Wunderground v.1.15,2013-03-06 05:40:00,
2013-03-05 23:45:00,43.7,41.2,30.16,NNW,338,0.0,0.0,91,0.00,,,0.00,Wunderground v.1.15,2013-03-06 05:45:00,
2013-03-05 23:55:00,43.7,41.0,30.16,NNW,337,0.0,0.0,90,0.00,,,0.00,Wunderground v.1.15,2013-03-06 05:55:00,